StationID,Date,MaxTemp,MinTemp,Precipitation,Snowfall,SnowDepth
"CA001145M29","1992-11-01",51.98,41.00,50.00,,
"CA001145M29","1992-11-02",49.28,34.52,0.00,,
"CA001145M29","1992-11-03",44.06,30.20,0.00,,
"CA001145M29","1992-11-04",39.02,35.24,76.00,,
"CA001145M29","1992-11-05",44.06,36.50,0.00,,
"CA001145M29","1992-11-06",43.16,38.30,34.00,,
"CA001145M29","1992-11-07",40.82,36.86,104.00,,
"CA001145M29","1992-11-08",44.96,36.68,2.00,,
"CA001145M29","1992-11-09",42.98,31.10,0.00,,
"CA001145M29","1992-11-10",38.30,30.02,4.00,,
"CA001145M29","1992-11-11",40.64,33.80,40.00,,
"CA001145M29","1992-11-12",40.64,33.08,0.00,,
"CA001145M29","1992-11-13",42.44,35.96,2.00,,
"CA001145M29","1992-11-14",44.06,37.94,0.00,,
"CA001145M29","1992-11-15",46.04,40.64,40.00,,
"CA001145M29","1992-11-16",43.52,39.56,96.00,,
"CA001145M29","1992-11-17",,,0.00,,
"CA001145M29","1992-11-18",43.34,37.40,0.00,,
"CA001145M29","1992-11-19",40.46,34.88,42.00,,
"CA001145M29","1992-11-20",41.18,34.88,12.00,,
"CA001145M29","1992-11-21",37.22,33.26,74.00,,
"CA001145M29","1992-11-22",37.22,32.36,42.00,,
"CA001145M29","1992-11-23",34.70,28.58,0.00,,
"CA001145M29","1992-11-24",32.18,26.96,0.00,,
"CA001145M29","1992-11-25",32.54,28.94,0.00,,
"CA001145M29","1992-11-26",31.64,27.68,0.00,,
"CA001145M29","1992-11-27",31.10,26.96,,,
"CA001145M29","1992-11-28",33.98,25.88,,,
"CA001145M29","1992-11-29",32.72,29.12,,,
"CA001145M29","1992-11-30",35.42,29.30,,,
"CA001145M29","1992-12-01",30.02,23.36,,,
"CA001145M29","1992-12-02",35.24,17.42,,,
"CA001145M29","1992-12-03",30.92,14.00,,,
"CA001145M29","1992-12-04",26.60,19.22,,,
"CA001145M29","1992-12-05",25.88,23.36,,,
"CA001145M29","1992-12-06",24.80,21.20,,,
"CA001145M29","1992-12-07",26.78,23.72,,,
"CA001145M29","1992-12-08",30.56,26.06,,,
"CA001145M29","1992-12-09",37.94,28.04,,,
"CA001145M29","1992-12-10",34.16,25.52,,,
"CA001145M29","1992-12-11",34.52,32.18,,,
"CA001145M29","1992-12-12",36.86,25.52,,,
"CA001145M29","1992-12-13",28.58,24.26,,,
"CA001145M29","1992-12-14",34.34,27.86,,,
"CA001145M29","1992-12-15",31.46,22.64,,,
"CA001145M29","1992-12-16",26.24,15.98,,,
"CA001145M29","1992-12-17",28.58,25.16,,,
"CA001145M29","1992-12-18",25.70,15.44,,,
"CA001145M29","1992-12-19",18.86,11.66,,,
"CA001145M29","1992-12-20",28.76,18.86,,,
"CA001145M29","1992-12-21",31.64,27.86,,,
"CA001145M29","1992-12-22",33.62,29.48,,,
"CA001145M29","1992-12-23",37.76,30.38,,,
"CA001145M29","1992-12-24",40.46,27.68,,,
"CA001145M29","1992-12-25",29.48,23.00,,,
"CA001145M29","1992-12-26",32.54,28.94,,,
"CA001145M29","1992-12-27",32.54,20.30,,,
"CA001145M29","1992-12-28",23.18,14.90,,,
"CA001145M29","1992-12-29",19.94,17.24,,,
"CA001145M29","1992-12-30",19.58,17.24,,,
"CA001145M29","1992-12-31",20.30,14.72,,,
"CA001145M29","1993-01-01",19.22,9.14,,,
"CA001145M29","1993-01-02",16.88,6.80,,,
"CA001145M29","1993-01-03",25.34,14.72,,,
"CA001145M29","1993-01-04",27.14,20.66,,,
"CA001145M29","1993-01-05",21.92,15.08,,,
"CA001145M29","1993-01-06",18.68,11.30,,,
"CA001145M29","1993-01-07",16.16,9.32,,,
"CA001145M29","1993-01-08",29.66,15.98,,,
"CA001145M29","1993-01-09",28.04,12.74,,,
"CA001145M29","1993-01-10",24.44,5.72,,,
"CA001145M29","1993-01-11",25.16,7.34,,,
"CA001145M29","1993-01-12",20.66,6.44,,,
"CA001145M29","1993-01-13",21.20,15.08,,,
"CA001145M29","1993-01-14",29.12,17.06,,,
"CA001145M29","1993-01-15",25.34,21.20,,,
"CA001145M29","1993-01-16",28.40,22.28,,,
"CA001145M29","1993-01-17",30.38,23.54,,,
"CA001145M29","1993-01-18",28.58,25.34,,,
"CA001145M29","1993-01-19",26.78,22.46,,,
"CA001145M29","1993-01-20",39.02,26.06,,,
"CA001145M29","1993-01-21",40.28,30.74,,,
"CA001145M29","1993-01-22",36.14,22.46,,,
"CA001145M29","1993-01-23",28.40,14.72,,,
"CA001145M29","1993-01-24",27.50,23.00,,,
"CA001145M29","1993-01-25",40.46,27.14,,,
"CA001145M29","1993-01-26",38.84,33.08,,,
"CA001145M29","1993-01-27",40.46,34.70,,,
"CA001145M29","1993-01-28",37.40,32.54,,,
"CA001145M29","1993-01-29",37.94,33.80,,,
"CA001145M29","1993-01-30",38.84,33.62,,,
"CA001145M29","1993-01-31",37.58,34.34,,,
"CA001145M29","1993-02-01",37.58,33.44,,,
"CA001145M29","1993-02-02",36.50,32.90,,,
"CA001145M29","1993-02-03",35.96,33.62,,,
"CA001145M29","1993-02-04",39.02,29.84,,,
"CA001145M29","1993-02-05",37.04,27.14,,,
"CA001145M29","1993-02-06",34.88,26.60,,,
"CA001145M29","1993-02-07",38.30,26.96,,,
"CA001145M29","1993-02-08",44.60,28.04,,,
"CA001145M29","1993-02-09",41.90,30.56,,,
"CA001145M29","1993-02-10",40.28,33.80,,,
"CA001145M29","1993-02-11",42.80,32.54,,,
"CA001145M29","1993-02-12",40.28,32.36,,,
"CA001145M29","1993-02-13",45.32,32.72,,,
"CA001145M29","1993-02-14",39.74,24.44,,,
"CA001145M29","1993-02-15",27.86,15.80,,,
"CA001145M29","1993-02-16",24.26,10.94,,,
"CA001145M29","1993-02-17",24.80,7.52,,,
"CA001145M29","1993-02-18",26.06,8.60,,,
"CA001145M29","1993-02-19",27.14,21.92,,,
"CA001145M29","1993-02-20",30.38,25.88,,,
"CA001145M29","1993-02-21",28.22,21.38,,,
"CA001145M29","1993-02-22",33.08,20.30,,,
"CA001145M29","1993-02-23",32.90,19.22,,,
"CA001145M29","1993-02-24",32.36,10.94,,,
"CA001145M29","1993-02-25",34.16,10.94,,,
"CA001145M29","1993-02-26",35.60,11.48,,,
"CA001145M29","1993-02-27",38.30,22.10,,,
"CA001145M29","1993-02-28",39.02,25.34,,,
"CA001145M29","1993-03-01",40.64,22.46,18.00,,
"CA001145M29","1993-03-02",38.84,31.64,6.00,,
"CA001145M29","1993-03-03",43.34,30.56,0.00,,
"CA001145M29","1993-03-04",40.10,32.36,56.00,,
"CA001145M29","1993-03-05",43.88,35.96,32.00,,
"CA001145M29","1993-03-06",46.58,36.68,0.00,,
"CA001145M29","1993-03-07",49.82,35.60,0.00,,
"CA001145M29","1993-03-08",51.08,34.88,6.00,,
"CA001145M29","1993-03-09",50.18,28.04,0.00,,
"CA001145M29","1993-03-10",46.04,23.00,0.00,,
"CA001145M29","1993-03-11",42.80,23.18,0.00,,
"CA001145M29","1993-03-12",38.84,23.18,0.00,,
"CA001145M29","1993-03-13",42.62,20.48,0.00,,
"CA001145M29","1993-03-14",39.02,29.84,12.00,,
"CA001145M29","1993-03-15",47.12,30.38,96.00,,
"CA001145M29","1993-03-16",40.46,22.28,0.00,,
"CA001145M29","1993-03-17",34.16,30.02,0.00,,
"CA001145M29","1993-03-18",48.56,31.64,26.00,,
"CA001145M29","1993-03-19",51.62,28.40,2.00,,
"CA001145M29","1993-03-20",45.50,33.08,16.00,,
"CA001145M29","1993-03-21",44.42,34.88,8.00,,
"CA001145M29","1993-03-22",40.46,36.86,94.00,,
"CA001145M29","1993-03-23",47.48,37.40,126.00,,
"CA001145M29","1993-03-24",47.84,34.52,0.00,,
"CA001145M29","1993-03-25",52.70,36.14,4.00,,
"CA001145M29","1993-03-26",55.94,31.82,0.00,,
"CA001145M29","1993-03-27",52.52,32.72,2.00,,
"CA001145M29","1993-03-28",51.62,37.94,4.00,,
"CA001145M29","1993-03-29",51.98,33.26,0.00,,
"CA001145M29","1993-03-30",48.38,30.92,0.00,,
"CA001145M29","1993-03-31",57.02,34.34,2.00,,
"CA001145M29","1993-04-01",57.02,37.76,2.00,,
"CA001145M29","1993-04-02",55.58,41.54,14.00,,
"CA001145M29","1993-04-03",49.82,40.28,52.00,,
"CA001145M29","1993-04-04",48.74,40.82,44.00,,
"CA001145M29","1993-04-05",51.44,37.04,0.00,,
"CA001145M29","1993-04-06",55.22,31.10,2.00,,
"CA001145M29","1993-04-07",57.56,40.82,0.00,,
"CA001145M29","1993-04-08",53.24,42.62,12.00,,
"CA001145M29","1993-04-09",53.42,38.48,18.00,,
"CA001145M29","1993-04-10",53.42,37.94,44.00,,
"CA001145M29","1993-04-11",53.42,38.48,2.00,,
"CA001145M29","1993-04-12",46.76,39.38,68.00,,
"CA001145M29","1993-04-13",48.92,38.30,0.00,,
"CA001145M29","1993-04-14",52.70,38.30,22.00,,
"CA001145M29","1993-04-15",55.40,32.00,0.00,,
"CA001145M29","1993-04-16",56.48,41.54,0.00,,
"CA001145M29","1993-04-17",57.56,41.90,0.00,,
"CA001145M29","1993-04-18",48.74,38.48,176.00,,
"CA001145M29","1993-04-19",57.38,39.02,10.00,,
"CA001145M29","1993-04-20",61.70,36.50,0.00,,
"CA001145M29","1993-04-21",57.92,39.02,4.00,,
"CA001145M29","1993-04-22",55.76,39.20,54.00,,
"CA001145M29","1993-04-23",58.28,41.00,46.00,,
"CA001145M29","1993-04-24",54.86,36.68,16.00,,
"CA001145M29","1993-04-25",54.86,40.10,120.00,,
"CA001145M29","1993-04-26",57.38,39.20,170.00,,
"CA001145M29","1993-04-27",54.50,40.28,14.00,,
"CA001145M29","1993-04-28",50.18,35.60,6.00,,
"CA001145M29","1993-04-29",56.48,42.26,26.00,,
"CA001145M29","1993-04-30",63.86,42.98,8.00,,
"CA001145M29","1993-05-01",54.32,40.10,10.00,,
"CA001145M29","1993-05-02",59.72,39.38,34.00,,
"CA001145M29","1993-05-03",57.20,39.56,0.00,,
"CA001145M29","1993-05-04",73.22,42.80,0.00,,
"CA001145M29","1993-05-05",75.02,41.36,0.00,,
"CA001145M29","1993-05-06",60.80,47.12,34.00,,
"CA001145M29","1993-05-07",59.36,44.78,2.00,,
"CA001145M29","1993-05-08",59.72,42.44,10.00,,
"CA001145M29","1993-05-09",66.02,39.20,0.00,,
"CA001145M29","1993-05-10",74.66,47.48,0.00,,
"CA001145M29","1993-05-11",85.28,47.48,0.00,,
"CA001145M29","1993-05-12",90.86,47.48,0.00,,
"CA001145M29","1993-05-13",88.34,47.84,0.00,,
"CA001145M29","1993-05-14",81.50,51.80,0.00,,
"CA001145M29","1993-05-15",82.94,48.38,0.00,,
"CA001145M29","1993-05-16",82.94,48.92,0.00,,
"CA001145M29","1993-05-17",81.68,45.68,0.00,,
"CA001145M29","1993-05-18",80.96,47.12,0.00,,
"CA001145M29","1993-05-19",80.06,47.12,0.00,,
"CA001145M29","1993-05-20",63.86,52.88,140.00,,
"CA001145M29","1993-05-21",66.02,47.66,290.00,,
"CA001145M29","1993-05-22",67.64,44.78,78.00,,
"CA001145M29","1993-05-23",69.08,42.80,2.00,,
"CA001145M29","1993-05-24",72.68,45.50,0.00,,
"CA001145M29","1993-05-25",78.44,45.32,0.00,,
"CA001145M29","1993-05-26",78.80,49.46,6.00,,
"CA001145M29","1993-05-27",79.34,49.82,0.00,,
"CA001145M29","1993-05-28",73.04,53.24,102.00,,
"CA001145M29","1993-05-29",71.96,53.42,14.00,,
"CA001145M29","1993-05-30",71.06,47.12,0.00,,
"CA001145M29","1993-05-31",68.18,50.90,70.00,,
"CA001145M29","1993-06-01",69.44,54.14,186.00,,
"CA001145M29","1993-06-02",67.64,51.62,2.00,,
"CA001145M29","1993-06-03",70.34,49.28,0.00,,
"CA001145M29","1993-06-04",77.54,46.94,0.00,,
"CA001145M29","1993-06-05",77.72,51.26,0.00,,
"CA001145M29","1993-06-06",78.08,50.00,0.00,,
"CA001145M29","1993-06-07",68.90,53.24,0.00,,
"CA001145M29","1993-06-08",69.80,54.50,4.00,,
"CA001145M29","1993-06-09",61.88,51.44,72.00,,
"CA001145M29","1993-06-10",63.14,48.92,40.00,,
"CA001145M29","1993-06-11",61.70,45.14,8.00,,
"CA001145M29","1993-06-12",57.92,48.38,12.00,,
"CA001145M29","1993-06-13",74.84,50.00,0.00,,
"CA001145M29","1993-06-14",64.22,53.24,14.00,,
"CA001145M29","1993-06-15",73.94,50.00,0.00,,
"CA001145M29","1993-06-16",67.10,53.78,26.00,,
"CA001145M29","1993-06-17",77.90,52.52,2.00,,
"CA001145M29","1993-06-18",84.74,53.96,0.00,,
"CA001145M29","1993-06-19",81.86,52.52,0.00,,
"CA001145M29","1993-06-20",86.36,50.36,0.00,,
"CA001145M29","1993-06-21",71.42,57.02,202.00,,
"CA001145M29","1993-06-22",57.74,45.68,18.00,,
"CA001145M29","1993-06-23",54.14,45.86,6.00,,
"CA001145M29","1993-06-24",70.16,48.74,0.00,,
"CA001145M29","1993-06-25",70.52,47.66,0.00,,
"CA001145M29","1993-06-26",77.90,51.98,2.00,,
"CA001145M29","1993-06-27",73.58,53.60,10.00,,
"CA001145M29","1993-06-28",68.72,48.20,88.00,,
"CA001145M29","1993-06-29",68.72,48.38,40.00,,
"CA001145M29","1993-06-30",66.02,51.62,0.00,,
"CA001145M29","1993-07-01",70.16,47.48,46.00,,
"CA001145M29","1993-07-02",70.88,50.00,22.00,,
"CA001145M29","1993-07-03",69.98,50.90,54.00,,
"CA001145M29","1993-07-04",75.20,53.24,0.00,,
"CA001145M29","1993-07-05",74.48,55.76,0.00,,
"CA001145M29","1993-07-06",72.32,49.64,0.00,,
"CA001145M29","1993-07-07",71.06,53.78,8.00,,
"CA001145M29","1993-07-08",69.98,48.74,18.00,,
"CA001145M29","1993-07-09",68.90,50.72,44.00,,
"CA001145M29","1993-07-10",68.00,50.90,56.00,,
"CA001145M29","1993-07-11",60.08,50.54,68.00,,
"CA001145M29","1993-07-12",62.24,46.94,8.00,,
"CA001145M29","1993-07-13",71.06,45.14,0.00,,
"CA001145M29","1993-07-14",73.40,48.20,0.00,,
"CA001145M29","1993-07-15",65.48,49.82,4.00,,
"CA001145M29","1993-07-16",64.40,50.00,36.00,,
"CA001145M29","1993-07-17",65.66,50.18,8.00,,
"CA001145M29","1993-07-18",73.22,53.06,10.00,,
"CA001145M29","1993-07-19",74.30,48.38,0.00,,
"CA001145M29","1993-07-20",61.70,54.86,70.00,,
"CA001145M29","1993-07-21",66.02,54.14,2.00,,
"CA001145M29","1993-07-22",67.10,53.42,6.00,,
"CA001145M29","1993-07-23",74.12,56.48,0.00,,
"CA001145M29","1993-07-24",74.66,54.86,14.00,,
"CA001145M29","1993-07-25",67.10,55.40,122.00,,
"CA001145M29","1993-07-26",78.98,55.58,0.00,,
"CA001145M29","1993-07-27",71.60,52.88,2.00,,
"CA001145M29","1993-07-28",80.42,56.66,0.00,,
"CA001145M29","1993-07-29",74.66,58.82,0.00,,
"CA001145M29","1993-07-30",73.58,48.92,42.00,,
"CA001145M29","1993-07-31",80.42,50.00,0.00,,
"CA001145M29","1993-08-01",84.20,50.90,0.00,,
"CA001145M29","1993-08-02",84.56,51.62,0.00,,
"CA001145M29","1993-08-03",87.26,57.02,0.00,,
"CA001145M29","1993-08-04",89.06,54.68,0.00,,
"CA001145M29","1993-08-05",88.34,55.58,0.00,,
"CA001145M29","1993-08-06",81.14,55.58,0.00,,
"CA001145M29","1993-08-07",83.30,56.66,6.00,,
"CA001145M29","1993-08-08",83.12,51.44,0.00,,
"CA001145M29","1993-08-09",83.30,52.34,0.00,,
"CA001145M29","1993-08-10",75.56,51.26,38.00,,
"CA001145M29","1993-08-11",78.98,50.00,2.00,,
"CA001145M29","1993-08-12",83.12,46.76,0.00,,
"CA001145M29","1993-08-13",84.56,49.82,0.00,,
"CA001145M29","1993-08-14",72.14,52.88,8.00,,
"CA001145M29","1993-08-15",62.60,56.84,126.00,,
"CA001145M29","1993-08-16",68.18,56.30,98.00,,
"CA001145M29","1993-08-17",70.16,58.28,64.00,,
"CA001145M29","1993-08-18",77.54,60.62,0.00,,
"CA001145M29","1993-08-19",84.02,55.76,0.00,,
"CA001145M29","1993-08-20",80.42,56.84,94.00,,
"CA001145M29","1993-08-21",74.12,60.80,378.00,,
"CA001145M29","1993-08-22",79.34,60.08,0.00,,
"CA001145M29","1993-08-23",73.58,50.36,140.00,,
"CA001145M29","1993-08-24",62.78,45.14,10.00,,
"CA001145M29","1993-08-25",62.06,47.30,0.00,,
"CA001145M29","1993-08-26",75.20,44.60,0.00,,
"CA001145M29","1993-08-27",64.58,49.28,20.00,,
"CA001145M29","1993-08-28",63.14,43.34,2.00,,
"CA001145M29","1993-08-29",70.70,44.96,0.00,,
"CA001145M29","1993-08-30",76.28,44.06,0.00,,
"CA001145M29","1993-08-31",62.78,48.20,0.00,,
"CA001145M29","1993-09-01",73.04,50.72,0.00,,
"CA001145M29","1993-09-02",,49.46,0.00,,
"CA001145M29","1993-09-03",,50.00,0.00,,
"CA001145M29","1993-09-04",77.00,53.60,0.00,,
"CA001145M29","1993-09-05",75.92,53.60,0.00,,
"CA001145M29","1993-09-06",75.56,50.72,0.00,,
"CA001145M29","1993-09-07",82.76,49.46,0.00,,
"CA001145M29","1993-09-08",84.56,52.16,0.00,,
"CA001145M29","1993-09-09",80.42,50.18,0.00,,
"CA001145M29","1993-09-10",81.86,51.26,0.00,,
"CA001145M29","1993-09-11",71.60,51.44,16.00,,
"CA001145M29","1993-09-12",69.08,44.96,0.00,,
"CA001145M29","1993-09-13",61.34,40.82,0.00,,
"CA001145M29","1993-09-14",54.14,46.58,66.00,,
"CA001145M29","1993-09-15",60.98,45.50,110.00,,
"CA001145M29","1993-09-16",64.58,46.22,0.00,,
"CA001145M29","1993-09-17",67.28,39.56,0.00,,
"CA001145M29","1993-09-18",72.68,40.46,0.00,,
"CA001145M29","1993-09-19",60.44,46.40,4.00,,
"CA001145M29","1993-09-20",54.86,42.44,188.00,,
"CA001145M29","1993-09-21",62.06,41.18,0.00,,
"CA001145M29","1993-09-22",64.76,38.84,0.00,,
"CA001145M29","1993-09-23",67.64,39.20,0.00,,
"CA001145M29","1993-09-24",62.60,40.28,0.00,,
"CA001145M29","1993-09-25",70.88,43.16,0.00,,
"CA001145M29","1993-09-26",71.24,40.82,0.00,,
"CA001145M29","1993-09-27",73.94,41.72,0.00,,
"CA001145M29","1993-09-28",72.86,45.68,0.00,,
"CA001145M29","1993-09-29",75.20,42.26,0.00,,
"CA001145M29","1993-09-30",73.22,49.46,0.00,,
"CA001145M29","1993-10-01",73.58,45.68,0.00,,
"CA001145M29","1993-10-02",69.26,42.98,0.00,,
"CA001145M29","1993-10-03",66.56,42.44,0.00,,
"CA001145M29","1993-10-04",66.56,43.34,0.00,,
"CA001145M29","1993-10-05",66.92,45.14,0.00,,
"CA001145M29","1993-10-06",61.88,44.06,14.00,,
"CA001145M29","1993-10-07",59.18,44.96,0.00,,
"CA001145M29","1993-10-08",61.88,40.82,0.00,,
"CA001145M29","1993-10-09",64.04,37.22,0.00,,
"CA001145M29","1993-10-10",64.40,38.12,0.00,,
"CA001145M29","1993-10-11",63.50,36.14,0.00,,
"CA001145M29","1993-10-12",58.46,42.62,0.00,,
"CA001145M29","1993-10-13",54.50,47.48,30.00,,
"CA001145M29","1993-10-14",59.00,47.84,44.00,,
"CA001145M29","1993-10-15",50.90,46.22,132.00,,
"CA001145M29","1993-10-16",60.80,45.50,2.00,,
"CA001145M29","1993-10-17",61.16,40.46,0.00,,
"CA001145M29","1993-10-18",53.60,38.12,24.00,,
"CA001145M29","1993-10-19",58.28,36.14,10.00,,
"CA001145M29","1993-10-20",50.54,30.20,0.00,,
"CA001145M29","1993-10-21",53.60,37.58,0.00,,
"CA001145M29","1993-10-22",53.06,34.88,16.00,,
"CA001145M29","1993-10-23",49.82,45.68,16.00,,
"CA001145M29","1993-10-24",57.56,43.16,2.00,,
"CA001145M29","1993-10-25",57.74,36.50,0.00,,
"CA001145M29","1993-10-26",52.88,32.54,0.00,,
"CA001145M29","1993-10-27",52.16,36.14,0.00,,
"CA001145M29","1993-10-28",59.72,35.96,0.00,,
"CA001145M29","1993-10-29",53.78,30.38,0.00,,
"CA001145M29","1993-10-30",48.74,32.54,0.00,,
"CA001145M29","1993-10-31",51.26,37.04,2.00,,
"CA001145M29","1993-11-01",51.26,33.44,,,
"CA001145M29","1993-11-02",47.12,39.02,,,
"CA001145M29","1993-11-03",54.50,38.30,,,
"CA001145M29","1993-11-04",45.32,30.56,,,
"CA001145M29","1993-11-05",45.14,28.58,,,
"CA001145M29","1993-11-06",39.38,33.26,,,
"CA001145M29","1993-11-07",43.34,33.44,,,
"CA001145M29","1993-11-08",49.82,31.64,,,
"CA001145M29","1993-11-09",43.34,25.70,,,
"CA001145M29","1993-11-10",44.42,27.50,,,
"CA001145M29","1993-11-11",43.16,25.34,,,
"CA001145M29","1993-11-12",44.96,27.50,,,
"CA001145M29","1993-11-13",42.44,27.14,,,
"CA001145M29","1993-11-14",39.02,23.00,,,
"CA001145M29","1993-11-15",38.12,33.62,,,
"CA001145M29","1993-11-16",40.10,31.46,,,
"CA001145M29","1993-11-17",36.86,29.48,,,
"CA001145M29","1993-11-18",39.92,28.94,,,
"CA001145M29","1993-11-19",39.92,30.02,,,
"CA001145M29","1993-11-20",39.38,34.88,,,
"CA001145M29","1993-11-21",39.74,23.36,,,
"CA001145M29","1993-11-22",23.72,12.92,,,
"CA001145M29","1993-11-23",16.88,8.96,,,
"CA001145M29","1993-11-24",18.50,11.66,,,
"CA001145M29","1993-11-25",20.66,14.36,,,
"CA001145M29","1993-11-26",21.38,17.06,,,
"CA001145M29","1993-11-27",25.52,20.30,,,
"CA001145M29","1993-11-28",32.36,25.16,,,
"CA001145M29","1993-11-29",34.52,30.56,,,
"CA001145M29","1993-11-30",39.02,32.72,,,
"CA001145M29","1993-12-01",36.50,32.18,,,
"CA001145M29","1993-12-02",38.30,32.18,,,
"CA001145M29","1993-12-03",37.04,32.90,,,
"CA001145M29","1993-12-04",42.62,29.84,,,
"CA001145M29","1993-12-05",32.36,21.92,0.00,,
"CA001145M29","1993-12-06",28.04,20.84,0.00,,
"CA001145M29","1993-12-07",29.48,27.86,,,
"CA001145M29","1993-12-08",34.34,28.58,,,
"CA001145M29","1993-12-09",39.92,32.00,,,
"CA001145M29","1993-12-10",38.84,34.16,,,
"CA001145M29","1993-12-11",39.74,36.14,,,
"CA001145M29","1993-12-12",43.34,28.94,,,
"CA001145M29","1993-12-13",36.50,28.04,,,
"CA001145M29","1993-12-14",35.42,33.26,,,
"CA001145M29","1993-12-15",41.36,31.46,0.00,,
"CA001145M29","1993-12-16",34.52,28.76,0.00,,
"CA001145M29","1993-12-17",30.02,27.32,0.00,,
"CA001145M29","1993-12-18",30.38,26.24,0.00,,
"CA001145M29","1993-12-19",31.64,26.96,0.00,,
"CA001145M29","1993-12-20",32.54,28.04,0.00,,
"CA001145M29","1993-12-21",31.64,25.88,0.00,,
"CA001145M29","1993-12-22",31.28,23.18,28.00,,
"CA001145M29","1993-12-23",29.12,24.08,0.00,,
"CA001145M29","1993-12-24",29.66,26.78,0.00,,
"CA001145M29","1993-12-25",28.40,22.64,0.00,,
"CA001145M29","1993-12-26",29.66,23.72,0.00,,
"CA001145M29","1993-12-27",29.30,25.52,0.00,,
"CA001145M29","1993-12-28",27.68,24.44,0.00,,
"CA001145M29","1993-12-29",31.64,25.52,,,
"CA001145M29","1993-12-30",33.08,29.66,,,
"CA001145M29","1993-12-31",35.06,32.36,,,
"CA001145M29","1994-01-01",37.04,31.82,,,
"CA001145M29","1994-01-02",37.40,32.18,,,
"CA001145M29","1994-01-03",40.10,32.36,,,
"CA001145M29","1994-01-04",36.68,32.36,,,
"CA001145M29","1994-01-05",41.54,30.92,0.00,,
"CA001145M29","1994-01-06",33.62,23.72,,,
"CA001145M29","1994-01-07",32.18,23.54,,,
"CA001145M29","1994-01-08",34.16,30.20,,,
"CA001145M29","1994-01-09",39.38,33.62,,,
"CA001145M29","1994-01-10",38.30,32.90,,,
"CA001145M29","1994-01-11",38.84,33.44,,,
"CA001145M29","1994-01-12",40.64,36.50,,,
"CA001145M29","1994-01-13",40.82,35.78,,,
"CA001145M29","1994-01-14",41.90,37.04,0.00,,
"CA001145M29","1994-01-15",43.88,36.14,2.00,,
"CA001145M29","1994-01-16",41.90,34.16,0.00,,
"CA001145M29","1994-01-17",40.46,35.78,0.00,,
"CA001145M29","1994-01-18",41.90,35.78,2.00,,
"CA001145M29","1994-01-19",38.48,32.54,0.00,,
"CA001145M29","1994-01-20",37.22,29.12,0.00,,
"CA001145M29","1994-01-21",34.88,27.32,0.00,,
"CA001145M29","1994-01-22",35.78,32.00,46.00,,
"CA001145M29","1994-01-23",38.12,35.24,8.00,,
"CA001145M29","1994-01-24",41.90,34.34,48.00,,
"CA001145M29","1994-01-25",44.78,33.26,0.00,,
"CA001145M29","1994-01-26",41.18,33.98,0.00,,
"CA001145M29","1994-01-27",43.70,28.40,0.00,,
"CA001145M29","1994-01-28",38.48,24.80,0.00,,
"CA001145M29","1994-01-29",36.32,25.88,0.00,,
"CA001145M29","1994-01-30",36.68,21.92,0.00,,
"CA001145M29","1994-01-31",36.86,23.18,0.00,,
"CA001145M29","1994-02-01",32.00,20.66,,,
"CA001145M29","1994-02-02",33.26,21.02,,,
"CA001145M29","1994-02-03",33.26,20.66,,,
"CA001145M29","1994-02-04",32.18,24.44,,,
"CA001145M29","1994-02-05",30.02,25.34,,,
"CA001145M29","1994-02-06",29.84,22.64,,,
"CA001145M29","1994-02-07",22.82,10.58,,,
"CA001145M29","1994-02-08",22.28,6.44,,,
"CA001145M29","1994-02-09",24.26,15.80,,,
"CA001145M29","1994-02-10",32.72,17.06,,,
"CA001145M29","1994-02-11",32.72,22.10,,,
"CA001145M29","1994-02-12",34.88,28.22,,,
"CA001145M29","1994-02-13",39.02,30.74,,,
"CA001145M29","1994-02-14",38.12,30.92,,,
"CA001145M29","1994-02-15",35.24,32.00,,,
"CA001145M29","1994-02-16",37.58,32.90,,,
"CA001145M29","1994-02-17",37.40,34.88,,,
"CA001145M29","1994-02-18",41.90,32.36,,,
"CA001145M29","1994-02-19",35.42,28.94,,,
"CA001145M29","1994-02-20",37.40,27.86,,,
"CA001145M29","1994-02-21",38.84,32.00,,,
"CA001145M29","1994-02-22",38.66,31.46,,,
"CA001145M29","1994-02-23",42.08,23.18,,,
"CA001145M29","1994-02-24",29.30,12.74,,,
"CA001145M29","1994-02-25",25.88,17.06,,,
"CA001145M29","1994-02-26",33.44,24.98,,,
"CA001145M29","1994-02-27",38.12,29.12,,,
"CA001145M29","1994-02-28",38.30,32.72,,,
"CA001145M29","1994-03-01",38.84,34.34,56.00,,
"CA001145M29","1994-03-02",40.64,36.14,14.00,,
"CA001145M29","1994-03-03",42.08,35.24,40.00,,
"CA001145M29","1994-03-04",49.82,32.90,36.00,,
"CA001145M29","1994-03-05",46.58,27.86,4.00,,
"CA001145M29","1994-03-06",45.68,23.54,0.00,,
"CA001145M29","1994-03-07",39.20,22.82,0.00,,
"CA001145M29","1994-03-08",48.74,23.36,0.00,,
"CA001145M29","1994-03-09",44.78,24.98,0.00,,
"CA001145M29","1994-03-10",41.18,32.54,22.00,,
"CA001145M29","1994-03-11",56.12,34.88,0.00,,
"CA001145M29","1994-03-12",49.10,30.20,2.00,,
"CA001145M29","1994-03-13",42.98,37.76,34.00,,
"CA001145M29","1994-03-14",52.88,36.32,0.00,,
"CA001145M29","1994-03-15",54.14,32.36,0.00,,
"CA001145M29","1994-03-16",53.78,37.22,8.00,,
"CA001145M29","1994-03-17",49.82,36.14,8.00,,
"CA001145M29","1994-03-18",43.16,34.52,126.00,,
"CA001145M29","1994-03-19",45.50,29.12,0.00,,
"CA001145M29","1994-03-20",41.18,28.94,14.00,,
"CA001145M29","1994-03-21",44.60,32.36,42.00,,
"CA001145M29","1994-03-22",44.42,29.48,2.00,,
"CA001145M29","1994-03-23",46.76,22.82,0.00,,
"CA001145M29","1994-03-24",51.80,24.08,0.00,,
"CA001145M29","1994-03-25",56.84,25.88,0.00,,
"CA001145M29","1994-03-26",62.60,29.30,0.00,,
"CA001145M29","1994-03-27",63.86,31.10,0.00,,
"CA001145M29","1994-03-28",64.94,33.08,0.00,,
"CA001145M29","1994-03-29",59.18,30.74,0.00,,
"CA001145M29","1994-03-30",61.52,30.74,0.00,,
"CA001145M29","1994-03-31",64.94,31.28,0.00,,
"CA001145M29","1994-04-01",60.44,35.42,0.00,,
"CA001145M29","1994-04-02",58.46,37.76,42.00,,
"CA001145M29","1994-04-03",51.98,41.36,16.00,,
"CA001145M29","1994-04-04",49.82,41.00,84.00,,
"CA001145M29","1994-04-05",50.36,35.78,20.00,,
"CA001145M29","1994-04-06",42.08,34.16,46.00,,